| time (UTC) | temp F | wind direction | speed MPH | gust MPH | rain 1hr in | rain 24hr in | rain mn in | humidity % | barometer mb |
| 20260505041542 | 59 | 0 | 1.0 | 5.0 | 0.00 | 0.00 | 0.00 | 31 | 1015.4 |
| 20260505041023 | 59 | 196 | 2.0 | 6.0 | 0.00 | 0.00 | 0.00 | 30 | 1015.4 |
| 20260505040525 | 59 | 192 | 1.0 | 6.0 | 0.00 | 0.00 | 0.00 | 30 | 1015.4 |
| 20260505040040 | 59 | 190 | 2.0 | 7.0 | 0.00 | 0.00 | 0.00 | 30 | 1015.5 |
| 20260505035526 | 59 | 194 | 2.0 | 7.0 | 0.00 | 0.00 | 0.00 | 29 | 1015.5 |
| 20260505035024 | 59 | 191 | 3.0 | 9.0 | 0.00 | 0.00 | 0.00 | 29 | 1015.5 |
| 20260505034552 | 59 | 209 | 2.0 | 9.0 | 0.00 | 0.00 | 0.00 | 29 | 1015.4 |
| 20260505034025 | 60 | 190 | 4.0 | 9.0 | 0.00 | 0.00 | 0.00 | 28 | 1015.5 |
| 20260505033522 | 60 | 215 | 2.0 | 8.0 | 0.00 | 0.00 | 0.00 | 28 | 1015.3 |
| 20260505033039 | 60 | 171 | 2.0 | 8.0 | 0.00 | 0.00 | 0.00 | 27 | 1015.2 |
| 20260505032525 | 60 | 210 | 4.0 | 8.0 | 0.00 | 0.00 | 0.00 | 27 | 1015.2 |
| 20260505032026 | 60 | 201 | 3.0 | 8.0 | 0.00 | 0.00 | 0.00 | 27 | 1015.2 |
| 20260505031536 | 60 | 192 | 3.0 | 8.0 | 0.00 | 0.00 | 0.00 | 27 | 1015.1 |
| 20260505031023 | 61 | 181 | 2.0 | 8.0 | 0.00 | 0.00 | 0.00 | 26 | 1014.8 |
| 20260505030523 | 61 | 193 | 4.0 | 12.0 | 0.00 | 0.00 | 0.00 | 26 | 1014.8 |
| 20260505030047 | 61 | 202 | 5.0 | 13.0 | 0.00 | 0.00 | 0.00 | 25 | 1014.8 |
| 20260505025528 | 61 | 178 | 6.0 | 14.0 | 0.00 | 0.00 | 0.00 | 25 | 1014.6 |
| 20260505025023 | 61 | 178 | 5.0 | 14.0 | 0.00 | 0.00 | 0.00 | 25 | 1014.8 |
| 20260505024533 | 62 | 176 | 6.0 | 14.0 | 0.00 | 0.00 | 0.00 | 25 | 1014.6 |
| 20260505024024 | 62 | 175 | 5.0 | 11.0 | 0.00 | 0.00 | 0.00 | 25 | 1014.4 |
| 20260505023524 | 62 | 154 | 6.0 | 12.0 | 0.00 | 0.00 | 0.00 | 24 | 1014.3 |
| 20260505023044 | 62 | 184 | 6.0 | 12.0 | 0.00 | 0.00 | 0.00 | 24 | 1014.4 |
| 20260505022525 | 62 | 190 | 5.0 | 14.0 | 0.00 | 0.00 | 0.00 | 23 | 1014.3 |
| 20260505022024 | 62 | 192 | 6.0 | 14.0 | 0.00 | 0.00 | 0.00 | 23 | 1014.3 |
| 20260505021539 | 63 | 196 | 5.0 | 19.0 | 0.00 | 0.00 | 0.00 | 22 | 1014.3 |
| 20260505021026 | 63 | 180 | 9.0 | 21.0 | 0.00 | 0.00 | 0.00 | 22 | 1014.3 |
| 20260505020525 | 63 | 194 | 10.0 | 22.0 | 0.00 | 0.00 | 0.00 | 22 | 1014.3 |
| 20260505020053 | 63 | 192 | 11.0 | 22.0 | 0.00 | 0.00 | 0.00 | 22 | 1014.3 |
| 20260505015525 | 63 | 130 | 7.0 | 21.0 | 0.00 | 0.00 | 0.00 | 21 | 1014.3 |
| 20260505015025 | 63 | 177 | 8.0 | 19.0 | 0.00 | 0.00 | 0.00 | 21 | 1014.3 |
| 20260505014544 | 63 | 165 | 6.0 | 16.0 | 0.00 | 0.00 | 0.00 | 21 | 1014.1 |
| 20260505014024 | 64 | 148 | 8.0 | 23.0 | 0.00 | 0.00 | 0.00 | 20 | 1014.1 |
| 20260505013525 | 64 | 156 | 11.0 | 23.0 | 0.00 | 0.00 | 0.00 | 20 | 1014.0 |
| 20260505013040 | 64 | 171 | 8.0 | 20.0 | 0.00 | 0.00 | 0.00 | 20 | 1014.0 |
| 20260505012527 | 64 | 184 | 10.0 | 18.0 | 0.00 | 0.00 | 0.00 | 20 | 1013.9 |
| 20260505012024 | 64 | 160 | 7.0 | 18.0 | 0.00 | 0.00 | 0.00 | 20 | 1013.8 |
| 20260505011540 | 64 | 154 | 4.0 | 12.0 | 0.00 | 0.00 | 0.00 | 19 | 1013.7 |
| 20260505011023 | 65 | 160 | 6.0 | 20.0 | 0.00 | 0.00 | 0.00 | 19 | 1013.8 |
| 20260505010524 | 65 | 166 | 5.0 | 23.0 | 0.00 | 0.00 | 0.00 | 19 | 1013.8 |
| 20260505010035 | 65 | 189 | 9.0 | 24.0 | 0.00 | 0.00 | 0.00 | 19 | 1013.8 |
| 20260505005524 | 65 | 181 | 12.0 | 24.0 | 0.00 | 0.00 | 0.00 | 19 | 1013.9 |
| 20260505005025 | 65 | 142 | 7.0 | 19.0 | 0.00 | 0.00 | 0.00 | 19 | 1014.0 |
| 20260505004558 | 65 | 167 | 10.0 | 16.0 | 0.00 | 0.00 | 0.00 | 19 | 1014.0 |
| 20260505004024 | 65 | 134 | 9.0 | 20.0 | 0.00 | 0.00 | 0.00 | 19 | 1014.1 |
| 20260505003527 | 66 | 141 | 10.0 | 20.0 | 0.00 | 0.00 | 0.00 | 19 | 1014.1 |
| 20260505003036 | 66 | 142 | 7.0 | 15.0 | 0.00 | 0.00 | 0.00 | 19 | 1014.0 |
| 20260505002525 | 66 | 144 | 8.0 | 21.0 | 0.00 | 0.00 | 0.00 | 19 | 1013.9 |
| 20260505002024 | 66 | 190 | 9.0 | 21.0 | 0.00 | 0.00 | 0.00 | 18 | 1013.9 |
| 20260505001539 | 66 | 161 | 9.0 | 20.0 | 0.00 | 0.00 | 0.00 | 19 | 1014.0 |
| 20260505001029 | 66 | 178 | 10.0 | 20.0 | 0.00 | 0.00 | 0.00 | 19 | 1014.0 |
| 20260505000526 | 66 | 174 | 11.0 | 20.0 | 0.00 | 0.00 | 0.00 | 19 | 1014.2 |
| 20260505000037 | 66 | 161 | 8.0 | 23.0 | 0.00 | 0.00 | 0.00 | 19 | 1014.3 |
| 20260504235525 | 66 | 169 | 10.0 | 23.0 | 0.00 | 0.00 | 0.00 | 19 | 1014.3 |
| 20260504235025 | 66 | 142 | 8.0 | 19.0 | 0.00 | 0.00 | 0.00 | 20 | 1014.2 |
| 20260504234536 | 66 | 166 | 10.0 | 19.0 | 0.00 | 0.00 | 0.00 | 20 | 1014.4 |
| 20260504234023 | 66 | 144 | 7.0 | 14.0 | 0.00 | 0.00 | 0.00 | 20 | 1014.4 |
| 20260504233522 | 66 | 120 | 5.0 | 19.0 | 0.00 | 0.00 | 0.00 | 21 | 1014.3 |
| 20260504233039 | 66 | 141 | 10.0 | 19.0 | 0.00 | 0.00 | 0.00 | 20 | 1014.2 |
| 20260504232523 | 67 | 136 | 10.0 | 17.0 | 0.00 | 0.00 | 0.00 | 20 | 1014.3 |
| 20260504232023 | 67 | 157 | 7.0 | 19.0 | 0.00 | 0.00 | 0.00 | 20 | 1014.1 |
| 20260504231549 | 67 | 170 | 9.0 | 19.0 | 0.00 | 0.00 | 0.00 | 20 | 1014.1 |
| 20260504231023 | 67 | 138 | 10.0 | 19.0 | 0.00 | 0.00 | 0.00 | 20 | 1014.1 |
| 20260504230529 | 67 | 145 | 8.0 | 20.0 | 0.00 | 0.00 | 0.00 | 21 | 1014.2 |
| 20260504230038 | 67 | 188 | 10.0 | 20.0 | 0.00 | 0.00 | 0.00 | 20 | 1014.5 |
| 20260504225524 | 67 | 175 | 9.0 | 22.0 | 0.00 | 0.00 | 0.00 | 20 | 1014.6 |
| 20260504225022 | 67 | 163 | 13.0 | 22.0 | 0.00 | 0.00 | 0.00 | 20 | 1014.6 |
| 20260504224541 | 67 | 159 | 10.0 | 20.0 | 0.00 | 0.00 | 0.00 | 20 | 1014.6 |
| 20260504224025 | 67 | 167 | 8.0 | 16.0 | 0.00 | 0.00 | 0.00 | 20 | 1014.7 |
| 20260504223523 | 66 | 150 | 8.0 | 23.0 | 0.00 | 0.00 | 0.00 | 21 | 1014.6 |
| 20260504223035 | 66 | 159 | 9.0 | 23.0 | 0.00 | 0.00 | 0.00 | 20 | 1014.7 |
| 20260504222524 | 66 | 157 | 13.0 | 23.0 | 0.00 | 0.00 | 0.00 | 20 | 1014.7 |
| 20260504222028 | 66 | 178 | 7.0 | 21.0 | 0.00 | 0.00 | 0.00 | 20 | 1014.9 |
| 20260504221607 | 66 | 158 | 10.0 | 22.0 | 0.00 | 0.00 | 0.00 | 19 | 1014.9 |
| 20260504221024 | 66 | 129 | 11.0 | 22.0 | 0.00 | 0.00 | 0.00 | 19 | 1015.1 |
| 20260504220523 | 67 | 117 | 9.0 | 19.0 | 0.00 | 0.00 | 0.00 | 19 | 1015.2 |
| 20260504220042 | 67 | 114 | 10.0 | 21.0 | 0.00 | 0.00 | 0.00 | 19 | 1015.2 |
| 20260504215527 | 67 | 180 | 9.0 | 25.0 | 0.00 | 0.00 | 0.00 | 19 | 1015.4 |
| 20260504215024 | 67 | 140 | 13.0 | 25.0 | 0.00 | 0.00 | 0.00 | 18 | 1015.4 |
| 20260504214538 | 68 | 122 | 9.0 | 21.0 | 0.00 | 0.00 | 0.00 | 17 | 1015.2 |
| 20260504214024 | 68 | 148 | 7.0 | 19.0 | 0.00 | 0.00 | 0.00 | 16 | 1015.2 |
| 20260504213524 | 68 | 188 | 8.0 | 19.0 | 0.00 | 0.00 | 0.00 | 16 | 1015.2 |
| 20260504213045 | 68 | 147 | 8.0 | 36.0 | 0.00 | 0.00 | 0.00 | 16 | 1015.4 |
| 20260504212525 | 68 | 175 | 10.0 | 36.0 | 0.00 | 0.00 | 0.00 | 16 | 1015.5 |
| 20260504212024 | 68 | 138 | 11.0 | 28.0 | 0.00 | 0.00 | 0.00 | 17 | 1015.1 |
| 20260504211536 | 67 | 132 | 12.0 | 26.0 | 0.00 | 0.00 | 0.00 | 17 | 1015.6 |
| 20260504211024 | 67 | 186 | 11.0 | 26.0 | 0.00 | 0.00 | 0.00 | 18 | 1015.7 |
| 20260504210525 | 67 | 142 | 12.0 | 20.0 | 0.00 | 0.00 | 0.00 | 17 | 1015.8 |
| 20260504210035 | 67 | 123 | 9.0 | 20.0 | 0.00 | 0.00 | 0.00 | 18 | 1015.9 |
| 20260504205524 | 67 | 162 | 8.0 | 20.0 | 0.00 | 0.00 | 0.00 | 17 | 1016.0 |
| 20260504205029 | 67 | 89 | 11.0 | 23.0 | 0.00 | 0.00 | 0.00 | 18 | 1016.1 |
| 20260504204539 | 67 | 136 | 11.0 | 23.0 | 0.00 | 0.00 | 0.00 | 18 | 1016.1 |
| 20260504204024 | 67 | 141 | 10.0 | 20.0 | 0.00 | 0.00 | 0.00 | 18 | 1016.2 |
| 20260504203524 | 67 | 158 | 10.0 | 20.0 | 0.00 | 0.00 | 0.00 | 19 | 1016.4 |
| 20260504203041 | 67 | 209 | 10.0 | 20.0 | 0.00 | 0.00 | 0.00 | 20 | 1016.4 |
| 20260504202524 | 66 | 157 | 12.0 | 21.0 | 0.00 | 0.00 | 0.00 | 20 | 1016.4 |
| 20260504202024 | 67 | 132 | 7.0 | 21.0 | 0.00 | 0.00 | 0.00 | 20 | 1016.4 |
| 20260504201536 | 66 | 188 | 10.0 | 18.0 | 0.00 | 0.00 | 0.00 | 20 | 1016.5 |
| 20260504201023 | 66 | 147 | 8.0 | 16.0 | 0.00 | 0.00 | 0.00 | 19 | 1016.4 |
| 20260504200524 | 67 | 168 | 9.0 | 17.0 | 0.00 | 0.00 | 0.00 | 19 | 1016.5 |
| 20260504200036 | 66 | 148 | 7.0 | 21.0 | 0.00 | 0.00 | 0.00 | 20 | 1016.5 |
| 20260504195522 | 66 | 168 | 11.0 | 21.0 | 0.00 | 0.00 | 0.00 | 21 | 1016.6 |
| 20260504195021 | 65 | 126 | 11.0 | 21.0 | 0.00 | 0.00 | 0.00 | 21 | 1016.5 |
| 20260504194535 | 65 | 113 | 12.0 | 21.0 | 0.00 | 0.00 | 0.00 | 21 | 1017.0 |
| 20260504194025 | 66 | 115 | 10.0 | 23.0 | 0.00 | 0.00 | 0.00 | 22 | 1016.8 |
| 20260504193525 | 65 | 145 | 12.0 | 23.0 | 0.00 | 0.00 | 0.00 | 22 | 1017.0 |
| 20260504193046 | 66 | 159 | 11.0 | 22.0 | 0.00 | 0.00 | 0.00 | 22 | 1017.0 |
| 20260504192524 | 66 | 184 | 11.0 | 22.0 | 0.00 | 0.00 | 0.00 | 21 | 1016.8 |
| 20260504192028 | 66 | 134 | 10.0 | 20.0 | 0.00 | 0.00 | 0.00 | 23 | 1016.8 |
| 20260504191605 | 66 | 112 | 10.0 | 22.0 | 0.00 | 0.00 | 0.00 | 23 | 1016.9 |
| 20260504191024 | 66 | 128 | 9.0 | 23.0 | 0.00 | 0.00 | 0.00 | 23 | 1017.2 |
| 20260504190524 | 66 | 116 | 9.0 | 23.0 | 0.00 | 0.00 | 0.00 | 23 | 1017.2 |
| 20260504190040 | 65 | 173 | 10.0 | 22.0 | 0.00 | 0.00 | 0.00 | 22 | 1017.0 |
| 20260504185523 | 65 | 123 | 9.0 | 25.0 | 0.00 | 0.00 | 0.00 | 23 | 1017.3 |
| 20260504185024 | 65 | 93 | 8.0 | 25.0 | 0.00 | 0.00 | 0.00 | 24 | 1017.2 |
| 20260504184549 | 65 | 138 | 9.0 | 21.0 | 0.00 | 0.00 | 0.00 | 24 | 1017.3 |
| 20260504184024 | 65 | 162 | 9.0 | 21.0 | 0.00 | 0.00 | 0.00 | 25 | 1017.4 |
| 20260504183521 | 65 | 150 | 11.0 | 18.0 | 0.00 | 0.00 | 0.00 | 25 | 1017.4 |
| 20260504183035 | 64 | 124 | 9.0 | 19.0 | 0.00 | 0.00 | 0.00 | 26 | 1017.5 |
| 20260504182527 | 64 | 136 | 10.0 | 19.0 | 0.00 | 0.00 | 0.00 | 25 | 1017.4 |
| 20260504182024 | 64 | 128 | 10.0 | 18.0 | 0.00 | 0.00 | 0.00 | 25 | 1017.6 |
| 20260504181538 | 64 | 142 | 8.0 | 16.0 | 0.00 | 0.00 | 0.00 | 24 | 1017.5 |
| 20260504181026 | 64 | 123 | 8.0 | 17.0 | 0.00 | 0.00 | 0.00 | 25 | 1017.6 |
| 20260504180525 | 64 | 112 | 9.0 | 18.0 | 0.00 | 0.00 | 0.00 | 24 | 1017.6 |
| 20260504180038 | 64 | 110 | 9.0 | 18.0 | 0.00 | 0.00 | 0.00 | 25 | 1017.7 |
| 20260504175523 | 64 | 139 | 10.0 | 17.0 | 0.00 | 0.00 | 0.00 | 26 | 1017.8 |
| 20260504175024 | 64 | 157 | 8.0 | 16.0 | 0.00 | 0.00 | 0.00 | 27 | 1017.8 |
| 20260504174537 | 64 | 132 | 9.0 | 15.0 | 0.00 | 0.00 | 0.00 | 29 | 1018.1 |
| 20260504174024 | 64 | 126 | 5.0 | 14.0 | 0.00 | 0.00 | 0.00 | 30 | 1017.9 |
| 20260504173523 | 63 | 182 | 5.0 | 14.0 | 0.00 | 0.00 | 0.00 | 32 | 1018.0 |
| 20260504173035 | 63 | 105 | 5.0 | 13.0 | 0.00 | 0.00 | 0.00 | 31 | 1018.0 |
| 20260504172523 | 63 | 156 | 7.0 | 12.0 | 0.00 | 0.00 | 0.00 | 31 | 1017.9 |
| 20260504172024 | 63 | 116 | 4.0 | 16.0 | 0.00 | 0.00 | 0.00 | 37 | 1018.1 |
| 20260504171540 | 62 | 93 | 6.0 | 16.0 | 0.00 | 0.00 | 0.00 | 36 | 1018.0 |
| 20260504171028 | 63 | 132 | 4.0 | 9.0 | 0.00 | 0.00 | 0.00 | 39 | 1018.0 |
| 20260504170527 | 62 | 88 | 2.0 | 9.0 | 0.00 | 0.00 | 0.00 | 40 | 1018.2 |
| 20260504151022 | 55 | 150 | 3.0 | 8.0 | 0.00 | 0.00 | 0.00 | 58 | 1019.1 |
| 20260504150526 | 55 | 95 | 3.0 | 8.0 | 0.00 | 0.00 | 0.00 | 60 | 1019.2 |
| 20260504141027 | 52 | 0 | 0.0 | 3.0 | 0.00 | 0.00 | 0.00 | 69 | 1019.0 |
| 20260504140524 | 51 | 258 | 0.0 | 3.0 | 0.00 | 0.00 | 0.00 | 70 | 1019.0 |
| 20260504130523 | 47 | 294 | 0.0 | 3.0 | 0.00 | 0.00 | 0.00 | 75 | 1018.7 |
| 20260504110527 | 47 | 294 | 1.0 | 3.0 | 0.00 | 0.00 | 0.00 | 71 | 1017.8 |
| 20260504100525 | 51 | 0 | 1.0 | 4.0 | 0.00 | 0.00 | 0.00 | 64 | 1017.9 |
| 20260504081541 | 50 | 0 | 1.0 | 3.0 | 0.00 | 0.00 | 0.00 | 63 | 1018.6 |
| 20260504081028 | 50 | 294 | 1.0 | 3.0 | 0.00 | 0.00 | 0.00 | 64 | 1018.7 |
| 20260504080525 | 50 | 294 | 1.0 | 3.0 | 0.00 | 0.00 | 0.00 | 64 | 1018.8 |
| 20260504050525 | 47 | 0 | 1.0 | 4.0 | 0.00 | 0.00 | 0.00 | 59 | 1019.5 |
| 20260504045527 | 49 | 0 | 0.0 | 0.0 | 0.00 | 0.00 | 0.00 | 55 | 1019.5 |
| 20260504045026 | 49 | 0 | 0.0 | 0.0 | 0.00 | 0.00 | 0.00 | 55 | 1019.5 |
| 20260504044536 | 50 | 0 | 0.0 | 0.0 | 0.00 | 0.00 | 0.00 | 53 | 1019.3 |